Location: Eastlake (historical)
(39.0077°N, 122.6678°W)
Time: 13:12:50
(UTC+00:00)

Cosmos 2181 Rocket - Pass Details

Date: 25 November 2020
Orbit: 951 x 1015 km, 82.9° (Epoch: 25 January)

Event Time Altitude Azimuth Distance (km) Brightness Sun altitude
Rises 13:36:44 0° 351° (N) 3,685 6.8 -16.9°
Reaches altitude 10° 13:39:16 10° 350° (N) 2,725 6.1 -16.5°
Maximum altitude 13:45:29 78° 265° (W) 987 3.9 -15.3°
Drops below altitude 10° 13:51:35 10° 180° (S) 2,674 6.5 -14.1°
Sets 13:54:03 0° 179° (S) 3,612 7.2 -13.7°
